#timestamp,LO_Frequency,Hit,StdDev 
1456963215.3,286046995.7,P
1456963235.2,286046994.1,N
1456963255.9,286046991.7,P
1456963275.7,286046996.0,N
1456963295.6,286046997.8,N
1456963315.4,286046993.5,N
1456963335.2,286046993.8,N
1456963355.1,286046994.0,N
1456963356.0,286046994.0,N
1456963375.8,286046996.4,N
1456963395.6,286046992.1,Y
1456963415.5,286046997.0,P
1456963435.3,286046996.6,N
1456963455.1,286046993.9,P
1456963475.9,286046993.7,Y
1456963495.7,286047001.1,P
1456963515.5,286047001.1,N
1456963535.4,286047002.1,N
1456963555.2,286047002.2,N
1456963575.0,286047002.4,N
1456963575.9,286047002.4,N
1456963595.7,286047004.2,N
1456963615.6,286047005.8,N
1456963635.4,286047001.5,N
1456963655.2,286047001.8,N
1456963675.1,286047001.4,N
1456963676.0,286047001.4,N
1456963695.8,286047000.2,N
1456963715.6,286046999.3,N
1456963735.5,286047000.5,N
1456963755.3,286047001.0,N
1456963775.1,286046999.0,N
1456963795.9,286046997.0,N
1456963815.7,286046993.5,N
1456963835.5,286046994.9,N
1456963855.4,286046997.2,N
1456963875.2,286046995.7,N
1456963895.0,286046993.1,N
1456963895.9,286046993.1,N
1456963915.7,286046990.2,N
1456963935.6,286046994.8,N
1456963955.4,286046991.7,N
1456963975.2,286046991.4,N
1456963995.1,286046987.0,Y
1456963996.0,286046987.0,P
1456964015.8,286046991.3,N
1456964035.6,286046991.9,N
1456964055.5,286046992.6,N
1456964075.3,286046994.5,N
1456964095.1,286046994.0,N
1456964115.9,286046996.4,N
1456964135.7,286046994.7,N
1456964155.5,286046991.2,N
1456964175.4,286046988.6,Y
1456964195.2,286046997.1,P
1456964215.0,286046999.3,N
1456964215.9,286046999.3,N
1456964235.8,286046998.6,N
1456964255.6,286046996.7,N
1456964275.4,286046995.4,N
1456964295.3,286046997.7,N
1456964315.1,286046996.7,N
1456964316.0,286046996.7,N
1456964335.8,286046997.8,N
1456964355.7,286046997.2,N
1456964375.5,286046995.3,N
1456964395.3,286046997.8,N
1456964415.1,286046996.9,N
1456964435.9,286046999.4,N
1456964455.7,286046996.3,N
1456964475.5,286046993.4,Y
1456964495.4,286046996.8,P
1456964515.2,286046998.3,P
1456964535.0,286047000.6,N
1456964535.9,286047000.6,N
1456964555.8,286046996.7,N
1456964575.6,286046999.5,N
1456964595.4,286046995.0,Y
1456964615.3,286046998.1,P
1456964635.1,286047000.4,N
1456964655.8,286046999.0,N
1456964675.7,286046999.3,N
1456964695.5,286047000.7,N
1456964715.3,286046997.4,N
1456964735.2,286046998.3,N
1456964755.9,286046996.2,Y
1456964775.7,286046997.2,P
1456964795.6,286046997.7,N
1456964815.4,286046999.1,N
1456964835.2,286046994.9,Y
1456964855.1,286046998.9,P
1456964856.0,286046998.9,P
1456964875.8,286046997.9,P
1456964895.6,286046996.8,Y
1456964915.5,286046999.8,P
1456964935.3,286047002.5,P
1456964955.1,286047003.0,N
1456964975.9,286047003.9,N
1456964995.7,286047001.1,N
1456965015.5,286046998.2,N
1456965035.4,286047002.5,N
1456965055.2,286047000.3,N
1456965075.0,286047002.6,N
1456965075.9,286047002.6,N
1456965095.7,286047002.5,N
1456965115.6,286046999.2,N
1456965135.4,286046999.9,N
1456965155.2,286047002.6,N
1456965175.1,286047000.3,N
1456965176.0,286047000.3,N
1456965195.8,286046998.9,N
1456965215.6,286046999.6,N
1456965235.5,286046998.9,N
1456965255.3,286046996.8,N
1456965275.1,286046997.9,N
1456965295.9,286046999.4,N
1456965315.7,286046998.4,N
1456965335.5,286046994.1,Y
1456965355.4,286046994.4,P
1456965375.2,286046995.7,N
1456965395.0,286046992.7,N
1456965395.9,286046992.7,N
1456965415.8,286046997.0,N
1456965435.6,286046999.0,N
1456965455.4,286046998.3,N
1456965475.2,286046995.0,N
1456965495.1,286046993.7,N
1456965496.0,286046993.7,N
1456965515.8,286046995.3,N
1456965535.6,286046993.5,N
1456965555.5,286046993.7,N
1456965575.3,286046991.8,Y
1456965595.1,286046995.4,P
1456965615.9,286046996.6,P
1456965635.7,286046999.8,N
1456965655.5,286047000.6,N
1456965675.4,286047000.0,N
1456965695.2,286046999.9,N
1456965715.0,286046999.8,N
1456965715.9,286046999.8,N
1456965735.8,286047001.0,N
1456965755.6,286047002.8,N
1456965775.4,286047002.8,N
1456965795.3,286046998.9,N
1456965815.1,286047001.9,N
1456965816.0,286047001.9,N
1456965835.8,286047004.2,N
1456965855.7,286047001.3,N
1456965875.5,286047001.3,N
1456965895.3,286047004.0,N
1456965915.1,286047002.2,N
1456965935.9,286047003.7,N
1456965955.7,286047007.4,N
1456965975.5,286047008.5,Y
1456965995.4,286047008.2,P
1456966015.2,286047013.1,P
1456966035.0,286047016.4,P
1456966035.9,286047016.4,N
1456966055.8,286047014.5,N
1456966075.6,286047014.8,N
1456966095.4,286047014.7,N
1456966115.3,286047016.2,Y
1456966135.1,286047007.0,P
1456966155.8,286047008.4,P
1456966175.7,286047007.8,P
1456966195.5,286047009.3,Y
1456966215.3,286047005.6,P
1456966235.2,286047004.9,N
1456966255.0,286047007.6,P
1456966255.9,286047007.6,Y
1456966275.7,286047001.0,P
1456966295.6,286046997.2,N
1456966315.4,286046998.0,N
1456966335.2,286046997.3,N
1456966355.1,286046995.0,N
1456966356.0,286046995.0,N
1456966375.8,286046997.0,N
1456966395.6,286046995.3,N
1456966415.5,286046995.0,N
1456966435.3,286046997.8,N
1456966455.1,286046993.3,N
1456966475.9,286046996.3,N
1456966495.7,286046996.2,N
1456966515.5,286046994.1,N
1456966535.4,286046990.6,N
1456966555.2,286046992.6,N
1456966575.0,286046993.2,N
1456966575.9,286046993.2,N
1456966595.7,286046992.4,N
1456966615.6,286046990.4,N
1456966635.4,286046988.1,Y
1456966655.2,286046990.1,P
1456966675.1,286046988.6,P
1456966676.0,286046988.6,P
1456966695.8,286046988.5,Y
1456966715.7,286046998.4,P
1456966735.5,286046996.9,N
1456966755.3,286046996.0,N
1456966775.1,286046993.9,N
1456966795.9,286046994.8,N
